LNR032 LFMD-TNCM

Flight info

Callsign LNR032
Flight time N/A
Altitude 40000
Route LANKO G7 OB UL127 PADKO UY342 BULTO Y341 SALIN Y25 FJR/N0486F410 DCT OGRIL DCT ERAKI N976 ARDID DCT TERVA DCT XANEL DCT KOMUT/M086F430 DCT 36N021W 35N027W 33N033W 31N039W/M086F470 29N044W 26N050W 23N055W DCT RKDIA M576 OBIKE/N0475F470 M576 MNOLO
Aircraft C750/M-SBDE3FGHRWXY/S

Departure

Time 2026-04-24 19:28
Airport Cannes Mandelieu Airport (LFMD)

Arrival

Time N/A
Airport Princess Juliana International Airport (TNCM)
Time Latitude Longitude Altitude Speed Heading
2026-04-24 19:25 43.54022 6.95339 17 ft 0 kts 256°
2026-04-24 19:26 43.54022 6.95338 17 ft 1 kts 256°
2026-04-24 19:27 43.54017 6.95301 19 ft 6 kts 264°
2026-04-24 19:27 43.54028 6.95223 19 ft 10 kts 328°
2026-04-24 19:27 43.54207 6.95193 23 ft 63 kts 353°
2026-04-24 19:27 43.54935 6.95068 16 ft 140 kts 353°
2026-04-24 19:28 43.55916 6.94898 486 ft 143 kts 350°
2026-04-24 19:28 43.56942 6.94729 917 ft 159 kts 349°
2026-04-24 19:28 43.58164 6.94666 1092 ft 195 kts
2026-04-24 19:28 43.59479 6.95595 1227 ft 234 kts 41°
2026-04-24 19:29 43.59905 7.00189 2137 ft 265 kts 122°
2026-04-24 19:29 43.58545 7.01884 2915 ft 268 kts 159°
2026-04-24 19:29 43.56768 7.02106 3752 ft 260 kts 196°
2026-04-24 19:30 43.55143 7.01064 4594 ft 259 kts 212°
2026-04-24 19:30 43.53547 6.99833 5356 ft 266 kts 208°
2026-04-24 19:30 43.51805 6.98912 6202 ft 269 kts 199°
2026-04-24 19:30 43.49922 6.98794 6881 ft 279 kts 170°
2026-04-24 19:31 43.48141 6.99857 7657 ft 284 kts 143°
2026-04-24 19:31 43.46763 7.01798 8559 ft 283 kts 129°
2026-04-24 19:31 43.45512 7.03847 9459 ft 284 kts 128°
2026-04-24 19:31 43.44210 7.05908 10194 ft 289 kts 129°
2026-04-24 19:32 43.42820 7.08053 10375 ft 313 kts 130°
2026-04-24 19:32 43.41294 7.10392 10382 ft 339 kts 131°
2026-04-24 19:32 43.39230 7.12144 10569 ft 359 kts 160°
2026-04-24 19:32 43.36745 7.12476 11250 ft 363 kts 185°
2026-04-24 19:33 43.34356 7.11474 11767 ft 370 kts 208°
2026-04-24 19:33 43.32419 7.09153 12306 ft 374 kts 233°
2026-04-24 19:33 43.31318 7.05951 12968 ft 370 kts 254°
2026-04-24 19:33 43.30631 7.02535 13624 ft 371 kts 257°
2026-04-24 19:34 43.29993 6.99081 14086 ft 377 kts 256°
2026-04-24 19:34 43.29284 6.95605 14588 ft 381 kts 255°
2026-04-24 19:34 43.28529 6.92098 15083 ft 384 kts 255°
2026-04-24 19:34 43.27791 6.88540 15617 ft 386 kts 255°
2026-04-24 19:35 43.27079 6.84978 16123 ft 390 kts 256°
2026-04-24 19:35 43.26343 6.81362 16618 ft 394 kts 255°
2026-04-24 19:35 43.25586 6.77735 17195 ft 396 kts 255°
2026-04-24 19:35 43.24839 6.74132 17772 ft 399 kts 255°
2026-04-24 19:36 43.24081 6.70453 18321 ft 403 kts 255°
2026-04-24 19:36 43.23311 6.66735 18789 ft 408 kts 255°
2026-04-24 19:36 43.22527 6.62975 19339 ft 408 kts 255°
2026-04-24 19:36 43.22002 6.59370 20600 ft 381 kts 266°
2026-04-24 19:37 43.22000 6.55771 21394 ft 379 kts 272°
2026-04-24 19:37 43.22083 6.52118 21935 ft 383 kts 274°
2026-04-24 19:37 43.22150 6.48440 22501 ft 388 kts 273°
2026-04-24 19:37 43.22194 6.44763 23141 ft 388 kts 272°
2026-04-24 19:38 43.22233 6.41003 23746 ft 392 kts 271°
2026-04-24 19:38 43.22289 6.37267 24300 ft 393 kts 272°
2026-04-24 19:38 43.22349 6.33537 24695 ft 398 kts 272°
2026-04-24 19:38 43.22403 6.29722 25204 ft 401 kts 272°
2026-04-24 19:39 43.22451 6.25872 25720 ft 403 kts 272°
2026-04-24 19:39 43.22500 6.22061 26208 ft 405 kts 272°
2026-04-24 19:39 43.22553 6.18178 26744 ft 407 kts 272°
2026-04-24 19:39 43.22604 6.14279 27175 ft 411 kts 272°
2026-04-24 19:40 43.22650 6.10331 27652 ft 414 kts 272°
2026-04-24 19:40 43.22683 6.06352 28179 ft 416 kts 271°
2026-04-24 19:40 43.22709 6.02433 28719 ft 417 kts 271°
2026-04-24 19:40 43.22747 5.98384 29207 ft 420 kts 271°
2026-04-24 19:41 43.22782 5.94410 29651 ft 424 kts 271°
2026-04-24 19:41 43.22811 5.90348 30121 ft 427 kts 271°
2026-04-24 19:41 43.22836 5.86262 30528 ft 429 kts 271°
2026-04-24 19:41 43.22869 5.82155 30913 ft 432 kts 271°
2026-04-24 19:42 43.22906 5.78032 31320 ft 434 kts 271°
2026-04-24 19:42 43.22936 5.73866 31683 ft 438 kts 271°
2026-04-24 19:42 43.22960 5.69674 32056 ft 440 kts 271°
2026-04-24 19:42 43.22986 5.65466 32342 ft 445 kts 270°
2026-04-24 19:43 43.23009 5.62220 32363 ft 454 kts 271°
2026-04-24 19:43 43.23040 5.57875 32673 ft 457 kts 271°
2026-04-24 19:43 43.23065 5.53563 33198 ft 456 kts 271°
2026-04-24 19:43 43.23087 5.49221 33728 ft 454 kts 270°
2026-04-24 19:44 43.23110 5.44883 34270 ft 452 kts 270°
2026-04-24 19:44 43.23132 5.40569 34740 ft 451 kts 270°
2026-04-24 19:44 43.23151 5.36265 35173 ft 451 kts 270°
2026-04-24 19:44 43.23260 5.32030 35551 ft 451 kts 276°
2026-04-24 19:45 43.23665 5.27787 36108 ft 447 kts 278°
2026-04-24 19:45 43.24139 5.23584 36594 ft 445 kts 278°
2026-04-24 19:45 43.24570 5.19372 37034 ft 444 kts 277°
2026-04-24 19:45 43.24951 5.15176 37473 ft 443 kts 277°
2026-04-24 19:46 43.25347 5.10973 37912 ft 442 kts 277°
2026-04-24 19:46 43.25765 5.06854 38351 ft 441 kts 278°
2026-04-24 19:46 43.26181 5.02681 38790 ft 440 kts 277°
2026-04-24 19:46 43.26576 4.98509 39139 ft 439 kts 277°
2026-04-24 19:47 43.26969 4.94351 39474 ft 438 kts 278°
2026-04-24 19:47 43.27361 4.90216 39859 ft 436 kts 277°
2026-04-24 19:47 43.27604 4.86057 40167 ft 436 kts 274°
2026-04-24 19:47 43.27808 4.81906 40485 ft 436 kts 274°
2026-04-24 19:48 43.28022 4.77755 40804 ft 436 kts 275°
2026-04-24 19:48 43.28472 4.73702 41077 ft 436 kts 284°
2026-04-24 19:48 43.30832 4.66091 41741 ft 433 kts 300°
2026-04-24 19:49 43.33964 4.59006 42357 ft 433 kts 299°
2026-04-24 19:49 43.36745 4.51651 42843 ft 434 kts 298°
2026-04-24 19:50 43.41119 4.40711 43125 ft 440 kts 297°
2026-04-24 19:50 43.42524 4.37000 43127 ft 437 kts 298°
2026-04-24 19:51 43.46819 4.26022 43136 ft 433 kts 298°
2026-04-24 19:52 43.51070 4.15024 43146 ft 434 kts 298°
2026-04-24 19:52 43.53908 4.07675 43151 ft 434 kts 298°
2026-04-24 19:53 43.56559 4.00202 43151 ft 434 kts 289°
2026-04-24 19:53 43.57499 3.92061 43169 ft 436 kts 269°
2026-04-24 19:54 43.57208 3.87881 43177 ft 437 kts 262°
2026-04-24 19:54 43.56096 3.79631 43161 ft 437 kts 261°
2026-04-24 19:55 43.55624 3.74082 43148 ft 435 kts 265°
2026-04-24 19:55 43.54600 3.63045 43141 ft 436 kts 262°
2026-04-24 19:56 43.53831 3.54809 43139 ft 436 kts 263°
2026-04-24 19:56 43.53031 3.46531 43137 ft 436 kts 262°
2026-04-24 19:57 43.52226 3.38250 43136 ft 436 kts 263°
2026-04-24 19:57 43.51419 3.29965 43138 ft 436 kts 262°
2026-04-24 19:58 43.50603 3.21693 43138 ft 436 kts 262°
2026-04-24 19:58 43.49783 3.13414 43140 ft 435 kts 262°
2026-04-24 19:59 43.48960 3.05190 43199 ft 437 kts 262°
2026-04-24 19:59 43.48542 3.01029 43522 ft 436 kts 262°
2026-04-24 19:59 43.48124 2.96889 43816 ft 436 kts 262°
2026-04-24 19:59 43.47705 2.92752 44082 ft 436 kts 262°
2026-04-24 20:00 43.47285 2.88615 44358 ft 436 kts 262°
2026-04-24 20:00 43.46864 2.84482 44634 ft 435 kts 262°
2026-04-24 20:00 43.46446 2.80405 44878 ft 435 kts 262°
2026-04-24 20:00 43.46021 2.76282 45093 ft 434 kts 262°
2026-04-24 20:01 43.45596 2.72152 45127 ft 436 kts 262°
2026-04-24 20:01 43.44735 2.63844 45129 ft 437 kts 262°
2026-04-24 20:02 43.44019 2.56990 45120 ft 434 kts 262°
2026-04-24 20:02 43.43016 2.47449 45127 ft 433 kts 262°
2026-04-24 20:03 43.42144 2.39225 45128 ft 435 kts 262°
2026-04-24 20:03 43.41266 2.30993 45132 ft 435 kts 262°
2026-04-24 20:04 43.40531 2.24150 45125 ft 434 kts 262°
2026-04-24 20:04 43.39644 2.15939 45124 ft 433 kts 262°
2026-04-24 20:05 43.38755 2.07768 45119 ft 434 kts 262°
2026-04-24 20:05 43.37856 1.99562 45118 ft 434 kts 261°
2026-04-24 20:06 43.36954 1.91381 45111 ft 434 kts 261°
2026-04-24 20:06 43.36043 1.83183 45100 ft 433 kts 261°
2026-04-24 20:07 43.35283 1.76380 45098 ft 434 kts 261°
2026-04-24 20:07 43.34210 1.66836 45095 ft 434 kts 261°
2026-04-24 20:08 43.33282 1.58646 45102 ft 434 kts 261°
2026-04-24 20:08 43.32348 1.50458 45095 ft 434 kts 261°
2026-04-24 20:09 43.31405 1.42239 45096 ft 435 kts 261°
2026-04-24 20:09 43.30457 1.34030 45097 ft 435 kts 261°
2026-04-24 20:10 43.29507 1.25864 45094 ft 435 kts 261°
2026-04-24 20:10 43.28535 1.17657 45092 ft 435 kts 260°
2026-04-24 20:11 43.27542 1.09475 45092 ft 436 kts 260°
2026-04-24 20:11 43.26550 1.01251 45094 ft 436 kts 260°
2026-04-24 20:12 43.25553 0.93103 45101 ft 436 kts 260°
2026-04-24 20:12 43.24545 0.84877 45107 ft 436 kts 260°
2026-04-24 20:13 43.23531 0.76671 45104 ft 436 kts 260°
2026-04-24 20:13 43.22519 0.68520 45106 ft 437 kts 260°
2026-04-24 20:14 43.21489 0.60279 45119 ft 438 kts 260°
2026-04-24 20:14 43.20536 0.52697 45119 ft 437 kts 260°
2026-04-24 20:15 43.19503 0.44528 45120 ft 437 kts 260°
2026-04-24 20:15 43.18457 0.36304 45128 ft 437 kts 259°
2026-04-24 20:16 43.17447 0.28415 45138 ft 438 kts 259°
2026-04-24 20:16 43.16393 0.20225 45142 ft 438 kts 259°
2026-04-24 20:17 43.15328 0.11995 45147 ft 438 kts 259°
2026-04-24 20:17 43.13727 -0.00281 45134 ft 438 kts 259°
2026-04-24 20:18 43.12646 -0.08509 45126 ft 437 kts 259°
2026-04-24 20:18 43.11566 -0.16688 45129 ft 437 kts 259°
2026-04-24 20:19 43.10482 -0.24842 45131 ft 437 kts 259°
2026-04-24 20:19 43.09386 -0.33048 45132 ft 437 kts 259°
2026-04-24 20:20 43.08286 -0.41231 45135 ft 437 kts 259°
2026-04-24 20:20 43.07178 -0.49426 45128 ft 438 kts 259°
2026-04-24 20:21 43.06072 -0.57565 45131 ft 437 kts 259°
2026-04-24 20:21 43.04954 -0.65747 45131 ft 437 kts 259°
2026-04-24 20:22 43.03832 -0.73912 45126 ft 438 kts 259°
2026-04-24 20:22 43.02708 -0.82045 45131 ft 436 kts 258°
2026-04-24 20:23 43.01576 -0.90190 45128 ft 436 kts 258°
2026-04-24 20:23 43.00436 -0.98354 45123 ft 437 kts 258°
2026-04-24 20:24 42.98945 -1.06398 45131 ft 436 kts 246°
2026-04-24 20:24 42.96084 -1.13626 45140 ft 436 kts 239°
2026-04-24 20:25 42.93182 -1.20899 45144 ft 434 kts 242°
2026-04-24 20:25 42.90311 -1.28136 45149 ft 433 kts 240°
2026-04-24 20:26 42.87409 -1.35349 45137 ft 434 kts 241°
2026-04-24 20:26 42.84519 -1.42587 45134 ft 434 kts 240°
2026-04-24 20:27 42.81626 -1.49762 45130 ft 434 kts 241°
2026-04-24 20:27 42.78733 -1.56954 45133 ft 432 kts 240°
2026-04-24 20:28 42.75829 -1.64130 45127 ft 431 kts 240°
2026-04-24 20:28 42.73091 -1.71407 45109 ft 433 kts 249°
2026-04-24 20:29 42.71362 -1.79202 45139 ft 433 kts 253°
2026-04-24 20:29 42.69587 -1.87028 45140 ft 433 kts 251°
2026-04-24 20:30 42.67816 -1.94859 45133 ft 433 kts 252°
2026-04-24 20:30 42.66044 -2.02680 45137 ft 433 kts 252°
2026-04-24 20:31 42.64258 -2.10505 45132 ft 433 kts 252°
2026-04-24 20:31 42.62466 -2.18314 45136 ft 433 kts 251°
2026-04-24 20:32 42.60559 -2.26028 45142 ft 433 kts 251°
2026-04-24 20:32 42.58689 -2.33813 45136 ft 433 kts 251°
2026-04-24 20:33 42.56790 -2.41569 45135 ft 433 kts 251°
2026-04-24 20:33 42.54897 -2.49327 45141 ft 433 kts 251°
2026-04-24 20:34 42.52994 -2.57077 45138 ft 433 kts 251°
2026-04-24 20:34 42.51088 -2.64827 45139 ft 433 kts 251°
2026-04-24 20:35 42.49175 -2.72572 45144 ft 434 kts 251°
2026-04-24 20:35 42.47263 -2.80289 45153 ft 435 kts 251°
2026-04-24 20:36 42.45315 -2.88049 45150 ft 434 kts 249°
2026-04-24 20:36 42.42812 -2.95487 45161 ft 434 kts 244°
2026-04-24 20:37 42.40277 -3.02925 45154 ft 435 kts 245°
2026-04-24 20:37 42.37761 -3.10320 45161 ft 435 kts 245°
2026-04-24 20:38 42.35218 -3.17736 45152 ft 435 kts 245°
2026-04-24 20:38 42.32676 -3.25159 45156 ft 434 kts 245°
2026-04-24 20:39 42.30137 -3.32533 45166 ft 435 kts 245°
2026-04-24 20:39 42.27579 -3.39956 45169 ft 435 kts 245°
2026-04-24 20:40 42.25037 -3.47302 45177 ft 433 kts 245°
2026-04-24 20:40 42.22486 -3.54663 45173 ft 432 kts 245°
2026-04-24 20:41 42.19927 -3.62024 45169 ft 433 kts 245°
2026-04-24 20:41 42.17367 -3.69369 45143 ft 433 kts 245°
2026-04-24 20:42 42.14810 -3.76685 45147 ft 433 kts 245°
2026-04-24 20:42 42.12238 -3.84026 45145 ft 432 kts 245°
2026-04-24 20:43 42.09669 -3.91339 45143 ft 431 kts 245°
2026-04-24 20:43 42.07115 -3.98589 45143 ft 431 kts 245°
2026-04-24 20:44 42.04530 -4.05910 45150 ft 432 kts 245°
2026-04-24 20:44 42.02026 -4.13217 45140 ft 431 kts 248°
2026-04-24 20:45 41.99680 -4.20657 45140 ft 431 kts 247°
2026-04-24 20:45 41.97332 -4.28034 45142 ft 431 kts 247°
2026-04-24 20:46 41.94974 -4.35451 45140 ft 431 kts 247°
2026-04-24 20:46 41.92620 -4.42821 45140 ft 431 kts 247°
2026-04-24 20:47 41.90243 -4.50250 45141 ft 431 kts 247°
2026-04-24 20:47 41.87866 -4.57652 45149 ft 432 kts 247°
2026-04-24 20:48 41.85497 -4.65015 45150 ft 432 kts 247°
2026-04-24 20:48 41.83106 -4.72422 45155 ft 432 kts 247°
2026-04-24 20:49 41.80713 -4.79815 45155 ft 432 kts 247°
2026-04-24 20:49 41.78312 -4.87215 45155 ft 432 kts 247°
2026-04-24 20:50 41.75922 -4.94561 45156 ft 432 kts 247°
2026-04-24 20:50 41.73914 -5.00718 45154 ft 436 kts 246°
2026-04-24 20:51 41.71466 -5.08203 45157 ft 437 kts 246°
2026-04-24 20:51 41.69040 -5.15601 45153 ft 436 kts 246°
2026-04-24 20:52 41.66599 -5.23026 45148 ft 435 kts 246°
2026-04-24 20:52 41.64153 -5.30443 45146 ft 436 kts 246°
2026-04-24 20:53 41.61702 -5.37860 45146 ft 435 kts 246°
2026-04-24 20:53 41.59263 -5.45217 45148 ft 435 kts 246°
2026-04-24 20:54 41.56801 -5.52624 45141 ft 436 kts 246°
2026-04-24 20:54 41.54337 -5.60018 45145 ft 436 kts 246°
2026-04-24 20:55 41.51401 -5.67039 45147 ft 436 kts 234°
2026-04-24 20:55 41.47720 -5.73520 45151 ft 436 kts 234°
2026-04-24 20:56 41.44166 -5.80069 45145 ft 435 kts 235°
2026-04-24 20:56 41.40569 -5.86517 45145 ft 436 kts 234°
2026-04-24 20:57 41.36977 -5.93024 45145 ft 436 kts 234°
2026-04-24 20:57 41.33376 -5.99495 45146 ft 436 kts 234°
2026-04-24 20:58 41.29770 -6.05980 45141 ft 436 kts 234°
2026-04-24 20:58 41.26157 -6.12453 45143 ft 435 kts 235°
2026-04-24 20:59 41.22543 -6.18920 45143 ft 435 kts 235°
2026-04-24 20:59 41.18954 -6.25342 45138 ft 435 kts 236°
2026-04-24 21:00 41.16343 -6.32517 45128 ft 431 kts 255°
2026-04-24 21:00 41.14827 -6.40198 45148 ft 431 kts 255°
2026-04-24 21:01 41.13136 -6.47836 45135 ft 432 kts 255°
2026-04-24 21:01 41.11533 -6.55457 45132 ft 430 kts 255°
2026-04-24 21:02 41.09876 -6.63102 45132 ft 431 kts 255°
2026-04-24 21:02 41.08231 -6.70752 45125 ft 431 kts 255°
2026-04-24 21:03 41.06578 -6.78372 45129 ft 431 kts 255°
2026-04-24 21:03 41.04925 -6.85983 45127 ft 431 kts 255°
2026-04-24 21:04 41.03262 -6.93608 45124 ft 432 kts 255°
2026-04-24 21:04 41.01590 -7.01248 45130 ft 431 kts 255°
2026-04-24 21:05 40.99912 -7.08891 45127 ft 431 kts 255°
2026-04-24 21:05 40.98242 -7.16465 45131 ft 431 kts 255°
2026-04-24 21:06 40.96553 -7.24104 45130 ft 431 kts 255°
2026-04-24 21:06 40.94861 -7.31726 45139 ft 432 kts 255°
2026-04-24 21:07 40.93171 -7.39314 45144 ft 432 kts 255°
2026-04-24 21:07 40.91465 -7.46947 45147 ft 432 kts 255°
2026-04-24 21:08 40.89757 -7.54563 45150 ft 432 kts 255°
2026-04-24 21:08 40.88055 -7.62129 45159 ft 430 kts 255°
2026-04-24 21:09 40.86348 -7.69687 45148 ft 427 kts 255°
2026-04-24 21:09 40.84647 -7.77199 45155 ft 428 kts 255°
2026-04-24 21:10 40.82928 -7.84756 45152 ft 429 kts 255°
2026-04-24 21:10 40.81216 -7.92265 45167 ft 429 kts 255°
2026-04-24 21:11 40.79488 -7.99813 45164 ft 428 kts 255°
2026-04-24 21:11 40.77768 -8.07306 45172 ft 429 kts 255°
2026-04-24 21:12 40.76034 -8.14829 45163 ft 429 kts 255°
2026-04-24 21:12 40.74291 -8.22369 45170 ft 429 kts 255°
2026-04-24 21:13 40.72554 -8.29860 45176 ft 429 kts 255°
2026-04-24 21:13 40.70801 -8.37393 45171 ft 428 kts 254°
2026-04-24 21:14 40.69050 -8.44893 45166 ft 427 kts 254°
2026-04-24 21:14 40.67305 -8.52342 45169 ft 428 kts 254°
2026-04-24 21:15 40.65543 -8.59838 45170 ft 428 kts 254°
2026-04-24 21:15 40.63776 -8.67333 45170 ft 428 kts 254°
2026-04-24 21:16 40.62004 -8.74821 45177 ft 427 kts 254°
2026-04-24 21:16 40.60242 -8.82248 45182 ft 428 kts 254°
2026-04-24 21:17 40.58457 -8.89743 45182 ft 428 kts 254°
2026-04-24 21:17 40.56976 -8.95946 45182 ft 428 kts 254°
2026-04-24 21:18 40.54885 -9.04673 45176 ft 428 kts 254°
2026-04-24 21:18 40.53090 -9.12138 45190 ft 428 kts 254°
2026-04-24 21:19 40.51298 -9.19572 45195 ft 429 kts 254°
2026-04-24 21:19 40.49489 -9.27046 45195 ft 429 kts 254°
2026-04-24 21:20 40.46768 -9.38246 45189 ft 429 kts 254°
2026-04-24 21:21 40.44957 -9.45671 45199 ft 429 kts 254°
2026-04-24 21:21 40.43137 -9.53109 45186 ft 425 kts 254°
2026-04-24 21:22 40.41189 -9.60439 45173 ft 427 kts 246°
2026-04-24 21:22 40.38572 -9.67398 45199 ft 429 kts 246°
2026-04-24 21:23 40.35964 -9.74447 45202 ft 428 kts 246°
2026-04-24 21:23 40.33335 -9.81460 45199 ft 428 kts 246°
2026-04-24 21:24 40.30722 -9.88449 45196 ft 425 kts 246°
2026-04-24 21:24 40.28129 -9.95353 45189 ft 424 kts 246°
2026-04-24 21:25 40.25517 -10.02300 45189 ft 425 kts 246°
2026-04-24 21:25 40.22895 -10.09252 45189 ft 426 kts 246°
2026-04-24 21:26 40.20270 -10.16196 45194 ft 425 kts 246°
2026-04-24 21:26 40.17638 -10.23144 45186 ft 425 kts 246°
2026-04-24 21:27 40.15023 -10.30028 45181 ft 425 kts 245°
2026-04-24 21:27 40.12385 -10.36957 45185 ft 425 kts 245°
2026-04-24 21:28 40.09757 -10.43847 45188 ft 425 kts 245°
2026-04-24 21:28 40.07110 -10.50768 45187 ft 425 kts 245°
2026-04-24 21:29 40.04461 -10.57679 45173 ft 425 kts 245°
2026-04-24 21:29 40.01797 -10.64613 45192 ft 429 kts 245°
2026-04-24 21:30 39.99115 -10.71576 45200 ft 429 kts 245°
2026-04-24 21:30 39.96453 -10.78472 45189 ft 427 kts 245°
2026-04-24 21:31 39.93768 -10.85412 45184 ft 428 kts 245°
2026-04-24 21:31 39.91079 -10.92345 45187 ft 428 kts 245°
2026-04-24 21:32 39.88381 -10.99288 45188 ft 431 kts 245°
2026-04-24 21:32 39.85658 -11.06274 45196 ft 432 kts 245°
2026-04-24 21:33 39.82952 -11.13204 45194 ft 431 kts 245°
2026-04-24 21:33 39.80231 -11.20157 45194 ft 431 kts 245°
2026-04-24 21:34 39.77504 -11.27107 45194 ft 431 kts 245°
2026-04-24 21:34 39.74773 -11.34052 45187 ft 432 kts 245°
2026-04-24 21:35 39.72026 -11.41021 45191 ft 434 kts 245°
2026-04-24 21:35 39.69290 -11.47945 45193 ft 433 kts 244°
2026-04-24 21:36 39.66531 -11.54912 45183 ft 432 kts 245°
2026-04-24 21:36 39.63777 -11.61852 45190 ft 433 kts 245°
2026-04-24 21:37 39.61025 -11.68769 45200 ft 433 kts 245°
2026-04-24 21:37 39.58251 -11.75727 45198 ft 433 kts 244°
2026-04-24 21:38 39.55947 -11.81494 45192 ft 433 kts 244°
2026-04-24 21:38 39.52721 -11.89550 45193 ft 432 kts 244°
2026-04-24 21:39 39.50412 -11.95303 45200 ft 433 kts 244°
2026-04-24 21:39 39.47631 -12.02218 45201 ft 433 kts 244°
2026-04-24 21:40 39.44847 -12.09122 45200 ft 432 kts 245°
2026-04-24 21:40 39.42064 -12.16012 45200 ft 431 kts 245°
2026-04-24 21:41 39.39167 -12.22776 45205 ft 433 kts 240°
2026-04-24 21:41 39.35958 -12.29370 45197 ft 433 kts 240°
2026-04-24 21:42 39.32786 -12.35990 45202 ft 432 kts 241°
2026-04-24 21:42 39.29591 -12.42585 45207 ft 431 kts 241°
2026-04-24 21:43 39.26453 -12.49076 45204 ft 427 kts 241°
2026-04-24 21:43 39.23293 -12.55590 45199 ft 428 kts 241°
2026-04-24 21:44 39.20122 -12.62115 45202 ft 429 kts 241°
2026-04-24 21:44 39.16959 -12.68609 45202 ft 429 kts 241°
2026-04-24 21:45 39.13782 -12.75119 45203 ft 429 kts 241°
2026-04-24 21:45 39.10609 -12.81605 45201 ft 424 kts 241°
2026-04-24 21:46 39.07469 -12.88015 45201 ft 421 kts 241°
2026-04-24 21:46 39.04350 -12.94370 45202 ft 423 kts 241°
2026-04-24 21:47 39.01193 -13.00785 45206 ft 424 kts 241°
2026-04-24 21:47 38.98041 -13.07179 45208 ft 423 kts 241°
2026-04-24 21:48 38.94898 -13.13542 45196 ft 423 kts 241°
2026-04-24 21:48 38.91750 -13.19902 45203 ft 420 kts 241°
2026-04-24 21:49 38.88621 -13.26214 45201 ft 421 kts 240°
2026-04-24 21:49 38.85466 -13.32562 45202 ft 421 kts 240°
2026-04-24 21:50 38.82307 -13.38908 45209 ft 421 kts 240°
2026-04-24 21:50 38.79167 -13.45202 45209 ft 420 kts 240°
2026-04-24 21:51 38.76009 -13.51521 45213 ft 420 kts 240°
2026-04-24 21:51 38.72864 -13.57800 45212 ft 418 kts 240°
2026-04-24 21:52 38.69715 -13.64077 45212 ft 419 kts 240°
2026-04-24 21:52 38.66559 -13.70354 45212 ft 419 kts 240°
2026-04-24 21:53 38.63398 -13.76631 45205 ft 419 kts 240°
2026-04-24 21:53 38.60251 -13.82866 45209 ft 419 kts 240°
2026-04-24 21:54 38.57086 -13.89123 45210 ft 418 kts 240°
2026-04-24 21:54 38.53919 -13.95374 45208 ft 418 kts 240°
2026-04-24 21:55 38.50762 -14.01594 45209 ft 418 kts 240°
2026-04-24 21:55 38.47585 -14.07840 45213 ft 418 kts 240°
2026-04-24 21:56 38.44411 -14.14068 45219 ft 419 kts 240°
2026-04-24 21:56 38.41252 -14.20256 45221 ft 418 kts 240°
2026-04-24 21:57 38.38067 -14.26483 45214 ft 420 kts 240°
2026-04-24 21:57 38.34873 -14.32714 45215 ft 419 kts 240°
2026-04-24 21:58 38.31680 -14.38934 45217 ft 419 kts 240°
2026-04-24 21:58 38.28476 -14.45161 45218 ft 419 kts 240°
2026-04-24 21:59 38.25290 -14.51341 45217 ft 419 kts 240°
2026-04-24 21:59 38.22083 -14.57551 45205 ft 419 kts 240°
2026-04-24 22:00 38.18872 -14.63757 45210 ft 419 kts 240°
2026-04-24 22:00 38.15673 -14.69928 45211 ft 420 kts 240°
2026-04-24 22:01 38.12451 -14.76131 45212 ft 420 kts 240°
2026-04-24 22:01 38.09231 -14.82320 45211 ft 420 kts 240°
2026-04-24 22:02 38.06009 -14.88499 45212 ft 420 kts 240°
2026-04-24 22:02 38.02782 -14.94677 45206 ft 419 kts 240°
2026-04-24 22:03 37.99781 -15.00887 45199 ft 412 kts 248°
2026-04-24 22:03 37.97711 -15.07649 45228 ft 412 kts 251°
2026-04-24 22:04 37.95646 -15.14460 45223 ft 413 kts 251°
2026-04-24 22:04 37.93603 -15.21256 45219 ft 412 kts 251°
2026-04-24 22:05 37.91563 -15.27990 45219 ft 412 kts 251°
2026-04-24 22:05 37.89508 -15.34773 45219 ft 412 kts 251°
2026-04-24 22:06 37.87446 -15.41553 45220 ft 412 kts 251°
2026-04-24 22:06 37.85400 -15.48269 45214 ft 411 kts 251°
2026-04-24 22:07 37.83322 -15.55073 45216 ft 411 kts 251°
2026-04-24 22:07 37.81269 -15.61776 45216 ft 411 kts 251°
2026-04-24 22:08 37.79196 -15.68532 45211 ft 411 kts 251°
2026-04-24 22:08 37.77122 -15.75273 45213 ft 411 kts 251°
2026-04-24 22:09 37.75053 -15.81981 45210 ft 411 kts 251°
2026-04-24 22:09 37.72970 -15.88721 45210 ft 411 kts 251°
2026-04-24 22:10 37.70882 -15.95458 45207 ft 411 kts 251°
2026-04-24 22:10 37.68789 -16.02193 45203 ft 410 kts 251°
2026-04-24 22:11 37.66720 -16.08839 45201 ft 409 kts 251°
2026-04-24 22:11 37.64630 -16.15537 45199 ft 410 kts 251°
2026-04-24 22:12 37.62535 -16.22231 45201 ft 410 kts 251°
2026-04-24 22:12 37.60451 -16.28879 45201 ft 410 kts 251°
2026-04-24 22:13 37.58351 -16.35557 45194 ft 410 kts 250°
2026-04-24 22:13 37.56244 -16.42246 45206 ft 411 kts 250°
2026-04-24 22:14 37.54129 -16.48941 45206 ft 411 kts 250°
2026-04-24 22:14 37.52010 -16.55635 45207 ft 411 kts 250°
2026-04-24 22:15 37.49902 -16.62280 45208 ft 411 kts 250°
2026-04-24 22:15 37.47776 -16.68963 45209 ft 411 kts 250°
2026-04-24 22:16 37.45644 -16.75654 45209 ft 411 kts 250°
2026-04-24 22:16 37.43520 -16.82299 45204 ft 411 kts 250°
2026-04-24 22:17 37.41382 -16.88975 45204 ft 411 kts 250°
2026-04-24 22:17 37.39242 -16.95641 45199 ft 411 kts 250°
2026-04-24 22:18 37.37097 -17.02307 45198 ft 411 kts 250°
2026-04-24 22:18 37.34966 -17.08914 45203 ft 409 kts 250°
2026-04-24 22:19 37.32827 -17.15532 45202 ft 408 kts 250°
2026-04-24 22:19 37.30681 -17.22157 45201 ft 409 kts 250°
2026-04-24 22:20 37.28535 -17.28766 45203 ft 409 kts 250°
2026-04-24 22:20 37.26375 -17.35402 45202 ft 409 kts 250°
2026-04-24 22:21 37.24218 -17.42014 45206 ft 408 kts 250°
2026-04-24 22:21 37.22069 -17.48586 45199 ft 407 kts 250°
2026-04-24 22:22 37.19915 -17.55159 45202 ft 407 kts 250°
2026-04-24 22:22 37.17768 -17.61696 45205 ft 408 kts 250°
2026-04-24 22:23 37.15602 -17.68275 45200 ft 407 kts 250°
2026-04-24 22:23 37.13435 -17.74845 45202 ft 407 kts 250°
2026-04-24 22:24 37.11283 -17.81352 45200 ft 406 kts 250°
2026-04-24 22:24 37.09118 -17.87885 45199 ft 406 kts 250°
2026-04-24 22:25 37.07311 -17.93327 45198 ft 406 kts 250°
2026-04-24 22:25 37.05134 -17.99871 45197 ft 406 kts 250°
2026-04-24 22:26 37.02955 -18.06405 45201 ft 406 kts 250°
2026-04-24 22:26 37.00778 -18.12918 45196 ft 406 kts 250°
2026-04-24 22:27 36.98589 -18.19453 45200 ft 406 kts 250°
2026-04-24 22:27 36.96409 -18.25946 45201 ft 406 kts 250°
2026-04-24 22:28 36.94217 -18.32463 45197 ft 406 kts 250°
2026-04-24 22:28 36.92022 -18.38971 45200 ft 406 kts 250°
2026-04-24 22:29 36.88722 -18.48732 45203 ft 405 kts 250°
2026-04-24 22:29 36.86544 -18.55157 45203 ft 405 kts 250°
2026-04-24 22:30 36.84341 -18.61641 45205 ft 405 kts 250°
2026-04-24 22:30 36.82126 -18.68145 45205 ft 405 kts 249°
2026-04-24 22:31 36.79916 -18.74622 45202 ft 405 kts 249°
2026-04-24 22:31 36.77717 -18.81052 45202 ft 405 kts 249°
2026-04-24 22:32 36.75497 -18.87530 45201 ft 405 kts 249°
2026-04-24 22:32 36.73276 -18.93994 45200 ft 405 kts 249°
2026-04-24 22:33 36.71062 -19.00427 45197 ft 405 kts 249°
2026-04-24 22:33 36.68835 -19.06884 45199 ft 405 kts 249°
2026-04-24 22:34 36.66617 -19.13300 45190 ft 405 kts 249°
2026-04-24 22:34 36.64380 -19.19757 45195 ft 405 kts 249°
2026-04-24 22:35 36.62139 -19.26214 45191 ft 406 kts 249°
2026-04-24 22:35 36.59909 -19.32622 45191 ft 406 kts 249°
2026-04-24 22:36 36.57663 -19.39067 45174 ft 406 kts 249°
2026-04-24 22:36 36.55413 -19.45507 45196 ft 405 kts 249°
2026-04-24 22:37 36.53164 -19.51931 45194 ft 405 kts 249°
2026-04-24 22:37 36.50919 -19.58329 45194 ft 405 kts 249°
2026-04-24 22:38 36.48661 -19.64750 45193 ft 406 kts 249°
2026-04-24 22:38 36.46396 -19.71179 45193 ft 406 kts 249°
2026-04-24 22:39 36.44125 -19.77612 45194 ft 405 kts 249°
2026-04-24 22:39 36.41867 -19.83992 45194 ft 406 kts 249°
2026-04-24 22:40 36.39597 -19.90396 45193 ft 406 kts 249°
2026-04-24 22:40 36.37307 -19.96841 45194 ft 406 kts 249°
2026-04-24 22:41 36.35024 -20.03253 45193 ft 406 kts 249°
2026-04-24 22:41 36.32749 -20.09629 45190 ft 406 kts 249°
2026-04-24 22:42 36.30440 -20.16087 45193 ft 406 kts 248°
2026-04-24 22:42 36.28156 -20.22463 45190 ft 407 kts 248°
2026-04-24 22:43 36.25850 -20.28886 45191 ft 407 kts 248°
2026-04-24 22:43 36.23544 -20.35297 45187 ft 407 kts 248°
2026-04-24 22:44 36.21248 -20.41665 45190 ft 407 kts 248°
2026-04-24 22:44 36.18931 -20.48079 45190 ft 407 kts 248°
2026-04-24 22:45 36.16612 -20.54484 45193 ft 408 kts 248°
2026-04-24 22:45 36.14291 -20.60882 45195 ft 407 kts 248°
2026-04-24 22:46 36.11962 -20.67290 45175 ft 408 kts 248°
2026-04-24 22:46 36.09646 -20.73650 45191 ft 408 kts 248°
2026-04-24 22:47 36.07304 -20.80065 45191 ft 408 kts 248°
2026-04-24 22:47 36.04961 -20.86472 45191 ft 409 kts 248°
2026-04-24 22:48 36.02622 -20.92853 45191 ft 409 kts 247°
2026-04-24 22:48 36.00342 -20.99292 45166 ft 408 kts 252°
2026-04-24 22:49 35.99148 -21.06123 45198 ft 406 kts 261°
2026-04-24 22:49 35.98171 -21.12970 45195 ft 407 kts 261°
2026-04-24 22:50 35.97201 -21.19871 45195 ft 407 kts 261°
2026-04-24 22:50 35.96220 -21.26763 45195 ft 407 kts 260°
2026-04-24 22:51 35.95245 -21.33603 45191 ft 407 kts 260°
2026-04-24 22:51 35.94258 -21.40487 45189 ft 407 kts 260°
2026-04-24 22:52 35.93268 -21.47375 45188 ft 407 kts 260°
2026-04-24 22:52 35.92271 -21.54278 45188 ft 408 kts 260°
2026-04-24 22:53 35.91275 -21.61139 45188 ft 408 kts 260°
2026-04-24 22:53 35.90270 -21.68041 45188 ft 408 kts 260°
2026-04-24 22:54 35.89263 -21.74928 45186 ft 408 kts 260°
2026-04-24 22:54 35.88256 -21.81778 45176 ft 409 kts 259°
2026-04-24 22:55 35.87230 -21.88739 45183 ft 414 kts 259°
2026-04-24 22:55 35.86198 -21.95703 45186 ft 412 kts 259°
2026-04-24 22:56 35.85164 -22.02655 45181 ft 412 kts 259°
2026-04-24 22:56 35.84126 -22.09608 45178 ft 412 kts 259°
2026-04-24 22:57 35.83090 -22.16518 45179 ft 412 kts 259°
2026-04-24 22:57 35.82044 -22.23463 45180 ft 412 kts 259°
2026-04-24 22:58 35.80995 -22.30405 45180 ft 412 kts 259°
2026-04-24 22:58 35.79939 -22.37362 45175 ft 412 kts 259°
2026-04-24 22:59 35.78880 -22.44310 45186 ft 412 kts 259°
2026-04-24 23:00 35.77294 -22.54660 45172 ft 410 kts 259°
2026-04-24 23:00 35.76231 -22.61568 45168 ft 411 kts 259°
2026-04-24 23:01 35.75160 -22.68493 45169 ft 411 kts 259°
2026-04-24 23:01 35.74094 -22.75366 45166 ft 411 kts 259°
2026-04-24 23:02 35.73015 -22.82293 45172 ft 410 kts 259°
2026-04-24 23:02 35.71936 -22.89189 45170 ft 410 kts 259°
2026-04-24 23:03 35.70861 -22.96040 45171 ft 410 kts 259°
2026-04-24 23:03 35.69773 -23.02943 45168 ft 411 kts 259°
2026-04-24 23:04 35.68681 -23.09840 45168 ft 410 kts 259°
2026-04-24 23:04 35.67587 -23.16728 45171 ft 409 kts 259°
2026-04-24 23:05 35.66489 -23.23614 45167 ft 410 kts 259°
2026-04-24 23:05 35.65395 -23.30448 45168 ft 410 kts 259°
2026-04-24 23:06 35.64286 -23.37347 45166 ft 410 kts 258°
2026-04-24 23:06 35.63182 -23.44195 45166 ft 410 kts 258°
2026-04-24 23:07 35.62069 -23.51067 45165 ft 409 kts 258°
2026-04-24 23:07 35.60953 -23.57935 45164 ft 409 kts 258°
2026-04-24 23:08 35.59834 -23.64794 45162 ft 410 kts 258°
2026-04-24 23:08 35.58710 -23.71660 45163 ft 409 kts 258°
2026-04-24 23:09 35.57588 -23.78489 45153 ft 409 kts 258°
2026-04-24 23:09 35.56643 -23.84214 45153 ft 408 kts 258°
2026-04-24 23:10 35.55519 -23.91009 45152 ft 409 kts 258°
2026-04-24 23:10 35.54380 -23.97866 45152 ft 408 kts 258°
2026-04-24 23:11 35.53246 -24.04670 45148 ft 408 kts 258°
2026-04-24 23:11 35.52102 -24.11508 45148 ft 408 kts 258°
2026-04-24 23:12 35.50954 -24.18341 45144 ft 407 kts 258°
2026-04-24 23:12 35.49813 -24.25113 45145 ft 408 kts 258°
2026-04-24 23:13 35.48658 -24.31940 45144 ft 408 kts 258°
2026-04-24 23:13 35.47503 -24.38745 45146 ft 408 kts 258°
2026-04-24 23:14 35.46344 -24.45549 45147 ft 406 kts 258°
2026-04-24 23:14 35.45181 -24.52352 45144 ft 407 kts 258°
2026-04-24 23:15 35.44023 -24.59103 45144 ft 407 kts 258°
2026-04-24 23:15 35.42852 -24.65902 45146 ft 406 kts 258°
2026-04-24 23:16 35.41681 -24.72677 45149 ft 406 kts 258°
2026-04-24 23:16 35.40508 -24.79444 45145 ft 405 kts 258°
2026-04-24 23:17 35.39332 -24.86197 45142 ft 405 kts 258°
2026-04-24 23:17 35.38158 -24.92926 45143 ft 405 kts 258°
2026-04-24 23:18 35.36973 -24.99684 45146 ft 405 kts 258°
2026-04-24 23:18 35.35787 -25.06432 45139 ft 404 kts 258°
2026-04-24 23:19 35.34599 -25.13161 45139 ft 404 kts 258°
2026-04-24 23:19 35.33408 -25.19889 45137 ft 404 kts 258°
2026-04-24 23:20 35.32218 -25.26587 45137 ft 404 kts 258°
2026-04-24 23:20 35.31019 -25.33313 45134 ft 404 kts 258°
2026-04-24 23:21 35.29816 -25.40040 45135 ft 404 kts 258°
2026-04-24 23:21 35.28608 -25.46772 45135 ft 404 kts 258°
2026-04-24 23:22 35.27402 -25.53467 45133 ft 404 kts 257°
2026-04-24 23:22 35.26187 -25.60191 45131 ft 404 kts 257°
2026-04-24 23:23 35.24971 -25.66903 45133 ft 404 kts 257°
2026-04-24 23:23 35.23751 -25.73605 45133 ft 403 kts 257°
2026-04-24 23:24 35.22529 -25.80302 45133 ft 404 kts 257°
2026-04-24 23:24 35.21307 -25.86974 45131 ft 404 kts 257°
2026-04-24 23:25 35.20076 -25.93676 45128 ft 404 kts 257°
2026-04-24 23:25 35.18843 -26.00368 45125 ft 403 kts 257°
2026-04-24 23:26 35.17604 -26.07064 45119 ft 403 kts 257°
2026-04-24 23:26 35.16369 -26.13724 45120 ft 404 kts 257°
2026-04-24 23:27 35.15123 -26.20415 45122 ft 403 kts 257°
2026-04-24 23:27 35.13874 -26.27107 45114 ft 404 kts 257°
2026-04-24 23:28 35.12617 -26.33815 45120 ft 405 kts 257°
2026-04-24 23:28 35.11355 -26.40529 45113 ft 404 kts 257°
2026-04-24 23:29 35.10098 -26.47193 45111 ft 404 kts 257°
2026-04-24 23:29 35.08838 -26.53853 45113 ft 404 kts 257°
2026-04-24 23:30 35.07562 -26.60581 45116 ft 404 kts 256°
2026-04-24 23:30 35.06297 -26.67225 45112 ft 404 kts 256°
2026-04-24 23:31 35.05021 -26.73903 45112 ft 404 kts 256°
2026-04-24 23:31 35.03740 -26.80587 45112 ft 404 kts 256°
2026-04-24 23:32 35.02463 -26.87231 45115 ft 404 kts 256°
2026-04-24 23:32 35.01178 -26.93896 45114 ft 403 kts 256°
2026-04-24 23:33 34.99829 -27.00544 45102 ft 403 kts 252°
2026-04-24 23:33 34.97895 -27.06919 45117 ft 403 kts 250°
2026-04-24 23:34 34.95970 -27.13354 45118 ft 403 kts 250°
2026-04-24 23:34 34.94012 -27.19773 45112 ft 404 kts 250°
2026-04-24 23:35 34.92061 -27.26213 45111 ft 405 kts 250°
2026-04-24 23:35 34.90108 -27.32614 45110 ft 404 kts 250°
2026-04-24 23:36 34.88150 -27.39035 45110 ft 404 kts 250°
2026-04-24 23:36 34.86186 -27.45454 45110 ft 404 kts 250°
2026-04-24 23:37 34.84217 -27.51877 45098 ft 405 kts 250°
2026-04-24 23:37 34.81256 -27.61507 45097 ft 405 kts 250°
2026-04-24 23:38 34.79278 -27.67925 45095 ft 405 kts 250°
2026-04-24 23:38 34.77292 -27.74355 45093 ft 405 kts 250°
2026-04-24 23:39 34.75312 -27.80750 45089 ft 408 kts 249°
2026-04-24 23:39 34.73295 -27.87251 45093 ft 410 kts 249°
2026-04-24 23:40 34.71292 -27.93692 45091 ft 408 kts 249°
2026-04-24 23:40 34.69276 -28.00162 45088 ft 408 kts 249°
2026-04-24 23:41 34.67268 -28.06591 45091 ft 409 kts 249°
2026-04-24 23:41 34.65238 -28.13076 45094 ft 412 kts 249°
2026-04-24 23:42 34.63194 -28.19593 45098 ft 412 kts 249°
2026-04-24 23:42 34.61149 -28.26098 45095 ft 411 kts 249°
2026-04-24 23:43 34.59112 -28.32563 45092 ft 412 kts 249°
2026-04-24 23:43 34.57059 -28.39067 45091 ft 412 kts 249°
2026-04-24 23:44 34.55006 -28.45554 45092 ft 412 kts 249°
2026-04-24 23:44 34.52960 -28.52008 45093 ft 412 kts 249°
2026-04-24 23:45 34.50898 -28.58498 45090 ft 412 kts 249°
2026-04-24 23:45 34.48826 -28.65001 45090 ft 412 kts 249°
2026-04-24 23:46 34.46759 -28.71478 45080 ft 412 kts 249°
2026-04-24 23:46 34.44704 -28.77905 45079 ft 412 kts 249°
2026-04-24 23:47 34.42630 -28.84374 45081 ft 411 kts 249°
2026-04-24 23:47 34.40551 -28.90847 45080 ft 411 kts 249°
2026-04-24 23:48 34.38473 -28.97303 45096 ft 411 kts 249°
2026-04-24 23:48 34.36405 -29.03714 45090 ft 408 kts 249°
2026-04-24 23:49 34.34334 -29.10120 45089 ft 409 kts 249°
2026-04-24 23:49 34.32265 -29.16506 45086 ft 409 kts 249°
2026-04-24 23:50 34.30185 -29.22916 45089 ft 409 kts 249°
2026-04-24 23:50 34.28102 -29.29316 45088 ft 407 kts 249°
2026-04-24 23:51 34.26025 -29.35691 45084 ft 407 kts 249°
2026-04-24 23:51 34.23950 -29.42042 45081 ft 407 kts 249°
2026-04-24 23:52 34.21877 -29.48375 45082 ft 407 kts 249°
2026-04-24 23:52 34.19791 -29.54736 45077 ft 407 kts 249°
2026-04-24 23:53 34.17703 -29.61087 45073 ft 405 kts 249°
2026-04-24 23:53 34.15615 -29.67428 45075 ft 406 kts 249°
2026-04-24 23:54 34.13523 -29.73766 45073 ft 406 kts 249°
2026-04-24 23:54 34.11440 -29.80064 45074 ft 406 kts 249°
2026-04-24 23:55 34.09340 -29.86399 45072 ft 404 kts 249°
2026-04-24 23:55 34.07603 -29.91632 45068 ft 404 kts 249°
2026-04-24 23:56 34.05509 -29.97928 45067 ft 405 kts 249°
2026-04-24 23:56 34.03405 -30.04241 45068 ft 405 kts 249°
2026-04-24 23:57 34.01314 -30.10500 45068 ft 404 kts 249°
2026-04-24 23:57 33.99215 -30.16773 45061 ft 401 kts 249°
2026-04-24 23:58 33.97121 -30.23020 45053 ft 401 kts 249°
2026-04-24 23:58 33.95022 -30.29264 45051 ft 402 kts 249°
2026-04-24 23:59 33.92932 -30.35474 45052 ft 402 kts 249°
2026-04-24 23:59 33.90826 -30.41716 45057 ft 401 kts 249°
2026-04-25 00:00 33.88725 -30.47933 45058 ft 400 kts 249°
2026-04-25 00:00 33.86621 -30.54145 45052 ft 401 kts 249°
2026-04-25 00:01 33.84512 -30.60360 45053 ft 401 kts 249°
2026-04-25 00:01 33.82414 -30.66531 45053 ft 401 kts 249°
2026-04-25 00:02 33.80307 -30.72716 45053 ft 397 kts 249°
2026-04-25 00:02 33.78211 -30.78857 45043 ft 396 kts 249°
2026-04-25 00:03 33.76119 -30.84972 45045 ft 398 kts 249°
2026-04-25 00:03 33.74011 -30.91124 45050 ft 398 kts 249°
2026-04-25 00:04 33.71898 -30.97279 45048 ft 397 kts 249°
2026-04-25 00:04 33.69799 -31.03380 45037 ft 394 kts 249°
2026-04-25 00:05 33.67714 -31.09431 45037 ft 394 kts 249°
2026-04-25 00:05 33.65610 -31.15523 45037 ft 395 kts 249°
2026-04-25 00:06 33.63498 -31.21630 45037 ft 395 kts 249°
2026-04-25 00:06 33.61402 -31.27677 45033 ft 395 kts 249°
2026-04-25 00:07 33.59287 -31.33765 45036 ft 395 kts 249°
2026-04-25 00:07 33.57164 -31.39866 45039 ft 395 kts 249°
2026-04-25 00:08 33.55048 -31.45937 45037 ft 395 kts 249°
2026-04-25 00:08 33.52927 -31.52012 45035 ft 395 kts 249°
2026-04-25 00:09 33.50828 -31.58007 45035 ft 392 kts 249°
2026-04-25 00:09 33.48704 -31.64067 45028 ft 392 kts 249°
2026-04-25 00:10 33.46596 -31.70068 45031 ft 393 kts 249°
2026-04-25 00:10 33.44472 -31.76105 45029 ft 392 kts 249°
2026-04-25 00:11 33.42351 -31.82122 45032 ft 391 kts 249°
2026-04-25 00:11 33.40248 -31.88076 45018 ft 389 kts 249°
2026-04-25 00:12 33.38138 -31.94041 45016 ft 390 kts 249°
2026-04-25 00:12 33.36014 -32.00031 45029 ft 390 kts 249°
2026-04-25 00:13 33.33893 -32.06004 45024 ft 390 kts 249°
2026-04-25 00:13 33.31773 -32.11960 45014 ft 387 kts 249°
2026-04-25 00:14 33.29661 -32.17888 45015 ft 387 kts 249°
2026-04-25 00:14 33.27538 -32.23832 45016 ft 388 kts 248°
2026-04-25 00:15 33.25428 -32.29731 45017 ft 388 kts 248°
2026-04-25 00:15 33.23306 -32.35652 45014 ft 388 kts 248°
2026-04-25 00:16 33.21179 -32.41575 45019 ft 386 kts 248°
2026-04-25 00:16 33.19053 -32.47486 45019 ft 387 kts 248°
2026-04-25 00:17 33.16938 -32.53356 45018 ft 387 kts 248°
2026-04-25 00:17 33.14806 -32.59264 45017 ft 387 kts 248°
2026-04-25 00:18 33.12668 -32.65175 45017 ft 387 kts 248°
2026-04-25 00:18 33.10530 -32.71076 45021 ft 387 kts 248°
2026-04-25 00:19 33.08403 -32.76939 45020 ft 387 kts 248°
2026-04-25 00:19 33.06258 -32.82837 45020 ft 387 kts 248°
2026-04-25 00:20 33.04124 -32.88698 45022 ft 387 kts 248°
2026-04-25 00:20 33.01973 -32.94593 45016 ft 387 kts 248°
2026-04-25 00:21 32.99845 -33.00483 45002 ft 387 kts 250°
2026-04-25 00:21 32.98042 -33.06483 45030 ft 387 kts 251°
2026-04-25 00:22 32.96200 -33.12503 45032 ft 386 kts 251°
2026-04-25 00:22 32.94374 -33.18526 45028 ft 386 kts 251°
2026-04-25 00:23 32.92537 -33.24540 45029 ft 387 kts 251°
2026-04-25 00:23 32.90696 -33.30570 45023 ft 387 kts 251°
2026-04-25 00:24 32.88863 -33.36556 45026 ft 387 kts 251°
2026-04-25 00:24 32.87020 -33.42567 45022 ft 387 kts 251°
2026-04-25 00:25 32.85170 -33.48586 45023 ft 388 kts 251°
2026-04-25 00:25 32.83317 -33.54602 45025 ft 387 kts 251°
2026-04-25 00:26 32.81469 -33.60591 45023 ft 387 kts 251°
2026-04-25 00:26 32.79610 -33.66606 45022 ft 387 kts 251°
2026-04-25 00:27 32.77746 -33.72624 45026 ft 388 kts 251°
2026-04-25 00:27 32.75889 -33.78607 45025 ft 388 kts 250°
2026-04-25 00:28 32.74015 -33.84634 45024 ft 388 kts 250°
2026-04-25 00:28 32.72139 -33.90653 45027 ft 388 kts 250°
2026-04-25 00:29 32.70260 -33.96675 45021 ft 388 kts 250°
2026-04-25 00:29 32.68390 -34.02652 45022 ft 388 kts 250°
2026-04-25 00:30 32.66503 -34.08674 45022 ft 388 kts 250°
2026-04-25 00:30 32.64624 -34.14656 45026 ft 388 kts 250°
2026-04-25 00:31 32.62736 -34.20659 45033 ft 388 kts 250°
2026-04-25 00:31 32.60840 -34.26673 45026 ft 389 kts 250°
2026-04-25 00:32 32.58942 -34.32684 45032 ft 388 kts 250°
2026-04-25 00:32 32.57053 -34.38652 45032 ft 388 kts 250°
2026-04-25 00:33 32.55149 -34.44657 45037 ft 388 kts 250°
2026-04-25 00:33 32.53252 -34.50628 45034 ft 388 kts 250°
2026-04-25 00:34 32.51346 -34.56618 45039 ft 389 kts 250°
2026-04-25 00:34 32.49434 -34.62614 45037 ft 388 kts 250°
2026-04-25 00:35 32.47519 -34.68610 45042 ft 389 kts 250°
2026-04-25 00:35 32.45597 -34.74613 45045 ft 389 kts 250°
2026-04-25 00:36 32.43690 -34.80561 45041 ft 388 kts 250°
2026-04-25 00:36 32.41762 -34.86559 45049 ft 388 kts 250°
2026-04-25 00:37 32.39839 -34.92534 45051 ft 389 kts 250°
2026-04-25 00:37 32.37912 -34.98510 45048 ft 388 kts 250°
2026-04-25 00:38 32.35997 -35.04434 45056 ft 388 kts 250°
2026-04-25 00:38 32.34065 -35.10403 45057 ft 388 kts 250°
2026-04-25 00:39 32.32131 -35.16365 45060 ft 388 kts 250°
2026-04-25 00:39 32.30192 -35.22333 45060 ft 388 kts 250°
2026-04-25 00:40 32.28250 -35.28295 45059 ft 388 kts 250°
2026-04-25 00:40 32.26322 -35.34206 45059 ft 388 kts 250°
2026-04-25 00:41 32.24704 -35.39159 45064 ft 388 kts 250°
2026-04-25 00:41 32.22758 -35.45105 45068 ft 388 kts 250°
2026-04-25 00:42 32.20807 -35.51056 45066 ft 388 kts 250°
2026-04-25 00:42 32.18855 -35.56996 45075 ft 388 kts 250°
2026-04-25 00:43 32.16903 -35.62929 45074 ft 388 kts 250°
2026-04-25 00:43 32.14956 -35.68835 45072 ft 388 kts 250°
2026-04-25 00:44 32.12995 -35.74769 45072 ft 388 kts 250°
2026-04-25 00:44 32.11032 -35.80701 45074 ft 387 kts 250°
2026-04-25 00:45 32.09071 -35.86617 45075 ft 387 kts 250°
2026-04-25 00:45 32.07116 -35.92501 45075 ft 387 kts 250°
2026-04-25 00:46 32.05149 -35.98414 45075 ft 387 kts 250°
2026-04-25 00:47 32.02188 -36.07292 45080 ft 386 kts 250°
2026-04-25 00:47 32.00215 -36.13195 45079 ft 387 kts 250°
2026-04-25 00:48 31.98251 -36.19058 45083 ft 387 kts 250°
2026-04-25 00:48 31.96269 -36.24966 45083 ft 387 kts 250°
2026-04-25 00:49 31.94297 -36.30833 45082 ft 387 kts 250°
2026-04-25 00:49 31.92315 -36.36720 45087 ft 386 kts 250°
2026-04-25 00:50 31.90330 -36.42605 45088 ft 387 kts 250°
2026-04-25 00:50 31.88342 -36.48489 45093 ft 387 kts 250°
2026-04-25 00:51 31.86359 -36.54346 45090 ft 387 kts 250°
2026-04-25 00:51 31.84365 -36.60227 45093 ft 387 kts 250°
2026-04-25 00:52 31.82367 -36.66108 45098 ft 387 kts 250°
2026-04-25 00:52 31.80376 -36.71956 45098 ft 387 kts 250°
2026-04-25 00:53 31.78371 -36.77837 45097 ft 386 kts 250°
2026-04-25 00:53 31.76376 -36.83679 45098 ft 387 kts 250°
2026-04-25 00:54 31.74374 -36.89529 45099 ft 387 kts 250°
2026-04-25 00:54 31.72362 -36.95401 45099 ft 386 kts 250°
2026-04-25 00:55 31.70349 -37.01263 45094 ft 386 kts 250°
2026-04-25 00:55 31.68350 -37.07075 45095 ft 386 kts 250°
2026-04-25 00:56 31.66329 -37.12940 45093 ft 386 kts 250°
2026-04-25 00:56 31.64323 -37.18753 45096 ft 386 kts 250°
2026-04-25 00:57 31.62302 -37.24597 45101 ft 386 kts 250°
2026-04-25 00:57 31.60279 -37.30438 45103 ft 386 kts 250°
2026-04-25 00:58 31.58252 -37.36280 45103 ft 386 kts 250°
2026-04-25 00:58 31.56236 -37.42080 45103 ft 386 kts 250°
2026-04-25 00:59 31.54202 -37.47920 45104 ft 386 kts 250°
2026-04-25 00:59 31.52170 -37.53747 45108 ft 385 kts 250°
2026-04-25 01:00 31.50148 -37.59531 45106 ft 385 kts 249°
2026-04-25 01:00 31.48113 -37.65345 45105 ft 385 kts 249°
2026-04-25 01:01 31.46074 -37.71162 45105 ft 385 kts 249°
2026-04-25 01:01 31.44034 -37.76970 45110 ft 385 kts 249°
2026-04-25 01:02 31.42007 -37.82733 45113 ft 385 kts 249°
2026-04-25 01:02 31.39963 -37.88532 45113 ft 385 kts 249°
2026-04-25 01:03 31.37916 -37.94329 45114 ft 385 kts 249°
2026-04-25 01:03 31.35868 -38.00121 45114 ft 384 kts 249°
2026-04-25 01:04 31.33835 -38.05862 45113 ft 384 kts 249°
2026-04-25 01:04 31.31781 -38.11649 45114 ft 384 kts 249°
2026-04-25 01:05 31.29729 -38.17422 45117 ft 384 kts 249°
2026-04-25 01:05 31.27691 -38.23145 45111 ft 383 kts 249°
2026-04-25 01:06 31.25642 -38.28894 45114 ft 383 kts 249°
2026-04-25 01:06 31.23596 -38.34620 45113 ft 383 kts 249°
2026-04-25 01:07 31.21538 -38.40372 45117 ft 383 kts 249°
2026-04-25 01:07 31.19481 -38.46110 45117 ft 382 kts 249°
2026-04-25 01:08 31.17422 -38.51843 45113 ft 382 kts 249°
2026-04-25 01:08 31.15374 -38.57538 45113 ft 382 kts 249°
2026-04-25 01:09 31.13309 -38.63271 45117 ft 382 kts 249°
2026-04-25 01:09 31.11248 -38.68984 45125 ft 382 kts 249°
2026-04-25 01:10 31.09194 -38.74665 45123 ft 382 kts 249°
2026-04-25 01:10 31.07125 -38.80382 45123 ft 382 kts 249°
2026-04-25 01:11 31.05056 -38.86088 45119 ft 381 kts 249°
2026-04-25 01:11 31.02992 -38.91769 45121 ft 381 kts 249°
2026-04-25 01:12 31.00917 -38.97473 45120 ft 382 kts 249°
2026-04-25 01:12 30.98838 -39.03139 45121 ft 382 kts 249°
2026-04-25 01:13 30.96698 -39.08811 45122 ft 382 kts 249°
2026-04-25 01:13 30.94580 -39.14493 45123 ft 381 kts 249°
2026-04-25 01:14 30.92463 -39.20129 45125 ft 381 kts 249°
2026-04-25 01:14 30.90336 -39.25796 45124 ft 381 kts 249°
2026-04-25 01:15 30.88205 -39.31458 45124 ft 381 kts 249°
2026-04-25 01:15 30.86085 -39.37084 45125 ft 381 kts 249°
2026-04-25 01:16 30.83953 -39.42733 45122 ft 381 kts 249°
2026-04-25 01:16 30.81815 -39.48389 45122 ft 381 kts 249°
2026-04-25 01:17 30.79692 -39.53996 45127 ft 381 kts 249°
2026-04-25 01:17 30.77552 -39.59639 45125 ft 380 kts 249°
2026-04-25 01:18 30.75411 -39.65278 45125 ft 380 kts 249°
2026-04-25 01:18 30.73280 -39.70879 45125 ft 380 kts 249°
2026-04-25 01:19 30.71141 -39.76492 45127 ft 380 kts 249°
2026-04-25 01:19 30.68989 -39.82133 45119 ft 380 kts 249°
2026-04-25 01:20 30.66855 -39.87715 45124 ft 380 kts 249°
2026-04-25 01:20 30.64704 -39.93334 45124 ft 380 kts 249°
2026-04-25 01:21 30.62550 -39.98951 45121 ft 380 kts 249°
2026-04-25 01:21 30.60395 -40.04564 45118 ft 380 kts 249°
2026-04-25 01:22 30.58242 -40.10163 45118 ft 379 kts 249°
2026-04-25 01:22 30.56094 -40.15740 45118 ft 380 kts 249°
2026-04-25 01:23 30.53933 -40.21339 45118 ft 380 kts 249°
2026-04-25 01:23 30.51783 -40.26903 45126 ft 379 kts 249°
2026-04-25 01:24 30.49621 -40.32491 45118 ft 379 kts 249°
2026-04-25 01:24 30.47470 -40.38039 45119 ft 379 kts 249°
2026-04-25 01:25 30.45308 -40.43609 45123 ft 379 kts 249°
2026-04-25 01:25 30.43141 -40.49183 45124 ft 378 kts 249°
2026-04-25 01:26 30.40975 -40.54745 45122 ft 378 kts 249°
2026-04-25 01:26 30.38813 -40.60290 45124 ft 378 kts 249°
2026-04-25 01:27 30.36639 -40.65854 45124 ft 378 kts 249°
2026-04-25 01:27 30.34480 -40.71374 45129 ft 378 kts 249°
2026-04-25 01:28 30.31573 -40.78792 45129 ft 378 kts 249°
2026-04-25 01:28 30.29397 -40.84336 45128 ft 378 kts 249°
2026-04-25 01:29 30.27230 -40.89846 45120 ft 378 kts 248°
2026-04-25 01:29 30.25050 -40.95383 45120 ft 377 kts 249°
2026-04-25 01:30 30.22871 -41.00911 45117 ft 377 kts 249°
2026-04-25 01:30 30.20699 -41.06410 45115 ft 377 kts 248°
2026-04-25 01:31 30.18509 -41.11946 45123 ft 378 kts 248°
2026-04-25 01:31 30.16317 -41.17480 45120 ft 378 kts 248°
2026-04-25 01:32 30.14138 -41.22971 45119 ft 378 kts 248°
2026-04-25 01:32 30.11946 -41.28488 45123 ft 378 kts 248°
2026-04-25 01:33 30.09759 -41.33985 45126 ft 377 kts 248°
2026-04-25 01:33 30.07562 -41.39498 45127 ft 377 kts 248°
2026-04-25 01:34 30.05365 -41.45002 45129 ft 377 kts 248°
2026-04-25 01:34 30.03173 -41.50486 45130 ft 377 kts 248°
2026-04-25 01:35 30.00984 -41.55956 45130 ft 377 kts 248°
2026-04-25 01:35 29.98786 -41.61438 45120 ft 375 kts 248°
2026-04-25 01:36 29.96589 -41.66913 45121 ft 376 kts 248°
2026-04-25 01:36 29.94385 -41.72392 45120 ft 376 kts 248°
2026-04-25 01:37 29.92192 -41.77839 45112 ft 376 kts 248°
2026-04-25 01:37 29.89990 -41.83299 45122 ft 375 kts 248°
2026-04-25 01:38 29.87787 -41.88755 45126 ft 375 kts 248°
2026-04-25 01:38 29.85578 -41.94216 45127 ft 375 kts 248°
2026-04-25 01:39 29.83382 -41.99638 45126 ft 375 kts 248°
2026-04-25 01:39 29.81173 -42.05086 45125 ft 375 kts 248°
2026-04-25 01:40 29.78963 -42.10527 45123 ft 375 kts 248°
2026-04-25 01:40 29.76762 -42.15938 45123 ft 375 kts 248°
2026-04-25 01:41 29.74546 -42.21378 45127 ft 374 kts 248°
2026-04-25 01:41 29.72334 -42.26799 45125 ft 374 kts 248°
2026-04-25 01:42 29.70120 -42.32219 45128 ft 374 kts 248°
2026-04-25 01:42 29.67904 -42.37635 45129 ft 374 kts 248°
2026-04-25 01:43 29.65704 -42.43005 45129 ft 373 kts 249°
2026-04-25 01:43 29.63488 -42.48407 45124 ft 373 kts 248°
2026-04-25 01:44 29.61279 -42.53782 45129 ft 373 kts 248°
2026-04-25 01:44 29.59057 -42.59184 45127 ft 373 kts 248°
2026-04-25 01:45 29.56833 -42.64580 45125 ft 373 kts 248°
2026-04-25 01:45 29.54624 -42.69935 45120 ft 373 kts 248°
2026-04-25 01:46 29.52394 -42.75330 45120 ft 373 kts 248°
2026-04-25 01:46 29.50165 -42.80716 45123 ft 373 kts 248°
2026-04-25 01:47 29.47953 -42.86055 45129 ft 371 kts 249°
2026-04-25 01:47 29.45735 -42.91402 45128 ft 371 kts 248°
2026-04-25 01:48 29.43507 -42.96762 45128 ft 371 kts 248°
2026-04-25 01:48 29.41291 -43.02088 45129 ft 371 kts 248°
2026-04-25 01:49 29.39062 -43.07435 45124 ft 370 kts 249°
2026-04-25 01:49 29.36837 -43.12768 45122 ft 370 kts 249°
2026-04-25 01:50 29.34622 -43.18069 45125 ft 370 kts 249°
2026-04-25 01:50 29.32392 -43.23400 45122 ft 370 kts 249°
2026-04-25 01:51 29.30157 -43.28732 45125 ft 370 kts 248°
2026-04-25 01:51 29.27938 -43.34020 45130 ft 370 kts 248°
2026-04-25 01:52 29.25699 -43.39349 45122 ft 370 kts 248°
2026-04-25 01:52 29.23460 -43.44670 45119 ft 370 kts 249°
2026-04-25 01:53 29.21242 -43.49934 45118 ft 369 kts 249°
2026-04-25 01:53 29.18999 -43.55251 45119 ft 370 kts 248°
2026-04-25 01:54 29.16759 -43.60552 45122 ft 370 kts 248°
2026-04-25 01:54 29.14530 -43.65821 45126 ft 369 kts 249°
2026-04-25 01:55 29.12290 -43.71109 45124 ft 369 kts 249°
2026-04-25 01:55 29.10042 -43.76407 45121 ft 369 kts 249°
2026-04-25 01:56 29.07795 -43.81698 45121 ft 369 kts 249°
2026-04-25 01:56 29.05564 -43.86941 45123 ft 367 kts 249°
2026-04-25 01:57 29.02198 -43.94841 45126 ft 368 kts 249°
2026-04-25 01:58 28.99951 -44.00096 45123 ft 368 kts 248°
2026-04-25 01:58 28.97539 -44.05272 45124 ft 369 kts 247°
2026-04-25 01:59 28.95134 -44.10446 45123 ft 368 kts 247°
2026-04-25 01:59 28.92733 -44.15588 45120 ft 369 kts 247°
2026-04-25 02:00 28.90317 -44.20763 45120 ft 369 kts 247°
2026-04-25 02:00 28.87908 -44.25911 45125 ft 367 kts 247°
2026-04-25 02:01 28.85504 -44.31048 45120 ft 367 kts 247°
2026-04-25 02:01 28.83106 -44.36160 45123 ft 367 kts 247°
2026-04-25 02:02 28.80689 -44.41307 45127 ft 367 kts 247°
2026-04-25 02:02 28.78277 -44.46438 45115 ft 366 kts 247°
2026-04-25 02:03 28.75872 -44.51550 45121 ft 366 kts 247°
2026-04-25 02:03 28.73462 -44.56663 45114 ft 366 kts 247°
2026-04-25 02:04 28.71062 -44.61750 45102 ft 366 kts 247°
2026-04-25 02:04 28.68654 -44.66844 45118 ft 363 kts 247°
2026-04-25 02:05 28.66255 -44.71919 45118 ft 364 kts 247°
2026-04-25 02:05 28.63860 -44.76972 45118 ft 364 kts 247°
2026-04-25 02:06 28.61451 -44.82054 45119 ft 364 kts 248°
2026-04-25 02:06 28.59049 -44.87111 45116 ft 363 kts 248°
2026-04-25 02:07 28.56658 -44.92141 45116 ft 363 kts 247°
2026-04-25 02:07 28.54249 -44.97203 45118 ft 363 kts 247°
2026-04-25 02:08 28.51840 -45.02257 45118 ft 363 kts 247°
2026-04-25 02:08 28.49432 -45.07303 45118 ft 363 kts 247°
2026-04-25 02:09 28.47053 -45.12280 45119 ft 359 kts 248°
2026-04-25 02:09 28.44664 -45.17280 45122 ft 360 kts 248°
2026-04-25 02:10 28.42265 -45.22287 45125 ft 361 kts 248°
2026-04-25 02:10 28.39880 -45.27261 45125 ft 360 kts 248°
2026-04-25 02:11 28.37480 -45.32259 45116 ft 358 kts 248°
2026-04-25 02:11 28.35104 -45.37204 45115 ft 356 kts 248°
2026-04-25 02:12 28.32730 -45.42137 45125 ft 358 kts 248°
2026-04-25 02:12 28.30343 -45.47091 45125 ft 357 kts 248°
2026-04-25 02:13 28.27957 -45.52039 45126 ft 357 kts 248°
2026-04-25 02:13 28.25584 -45.56948 45116 ft 353 kts 248°
2026-04-25 02:14 28.23221 -45.61841 45125 ft 354 kts 248°
2026-04-25 02:14 28.20844 -45.66748 45125 ft 354 kts 248°
2026-04-25 02:15 28.18872 -45.70818 45121 ft 354 kts 248°
2026-04-25 02:15 28.16108 -45.76513 45121 ft 354 kts 248°
2026-04-25 02:16 28.14134 -45.80576 45125 ft 351 kts 248°
2026-04-25 02:16 28.11786 -45.85407 45120 ft 350 kts 248°
2026-04-25 02:17 28.09422 -45.90262 45122 ft 351 kts 248°
2026-04-25 02:17 28.07079 -45.95070 45122 ft 351 kts 248°
2026-04-25 02:18 28.04711 -45.99924 45118 ft 353 kts 248°
2026-04-25 02:18 28.02340 -46.04771 45119 ft 348 kts 248°
2026-04-25 02:19 28.00007 -46.09548 45118 ft 349 kts 248°
2026-04-25 02:19 27.97647 -46.14363 45118 ft 349 kts 248°
2026-04-25 02:20 27.95306 -46.19141 45122 ft 350 kts 248°
2026-04-25 02:20 27.92944 -46.23953 45123 ft 350 kts 248°
2026-04-25 02:21 27.90585 -46.28753 45124 ft 346 kts 248°
2026-04-25 02:21 27.88241 -46.33522 45119 ft 347 kts 248°
2026-04-25 02:22 27.85903 -46.38266 45118 ft 348 kts 248°
2026-04-25 02:22 27.83546 -46.43048 45117 ft 347 kts 248°
2026-04-25 02:23 27.81189 -46.47824 45119 ft 347 kts 248°
2026-04-25 02:23 27.78833 -46.52590 45116 ft 347 kts 248°
2026-04-25 02:24 27.76486 -46.57335 45124 ft 347 kts 248°
2026-04-25 02:24 27.74122 -46.62108 45121 ft 347 kts 248°
2026-04-25 02:25 27.71760 -46.66874 45122 ft 347 kts 248°
2026-04-25 02:25 27.69406 -46.71616 45122 ft 347 kts 248°
2026-04-25 02:26 27.67036 -46.76385 45112 ft 346 kts 248°
2026-04-25 02:26 27.64697 -46.81087 45113 ft 346 kts 248°
2026-04-25 02:27 27.62340 -46.85820 45111 ft 346 kts 248°
2026-04-25 02:27 27.59984 -46.90546 45115 ft 346 kts 248°
2026-04-25 02:28 27.57621 -46.95279 45114 ft 346 kts 248°
2026-04-25 02:28 27.55257 -47.00011 45123 ft 346 kts 248°
2026-04-25 02:29 27.52899 -47.04722 45111 ft 344 kts 248°
2026-04-25 02:29 27.50559 -47.09398 45111 ft 345 kts 248°
2026-04-25 02:30 27.48199 -47.14104 45107 ft 344 kts 248°
2026-04-25 02:30 27.45838 -47.18808 45113 ft 344 kts 248°
2026-04-25 02:31 27.43488 -47.23486 45113 ft 344 kts 248°
2026-04-25 02:31 27.41127 -47.28178 45111 ft 343 kts 248°
2026-04-25 02:32 27.38782 -47.32839 45112 ft 343 kts 248°
2026-04-25 02:32 27.36420 -47.37522 45111 ft 343 kts 248°
2026-04-25 02:33 27.34055 -47.42210 45121 ft 344 kts 248°
2026-04-25 02:33 27.31705 -47.46861 45118 ft 343 kts 248°
2026-04-25 02:34 27.29335 -47.51547 45090 ft 342 kts 248°
2026-04-25 02:34 27.26991 -47.56178 45107 ft 344 kts 248°
2026-04-25 02:35 27.24618 -47.60859 45114 ft 343 kts 248°
2026-04-25 02:35 27.22253 -47.65521 45114 ft 343 kts 248°
2026-04-25 02:36 27.19899 -47.70156 45111 ft 343 kts 248°
2026-04-25 02:36 27.17529 -47.74816 45108 ft 343 kts 248°
2026-04-25 02:37 27.15153 -47.79487 45115 ft 345 kts 248°
2026-04-25 02:37 27.12762 -47.84176 45109 ft 345 kts 248°
2026-04-25 02:38 27.10391 -47.88826 45108 ft 345 kts 248°
2026-04-25 02:38 27.08002 -47.93503 45108 ft 345 kts 248°
2026-04-25 02:39 27.05613 -47.98177 45105 ft 345 kts 248°
2026-04-25 02:39 27.03241 -48.02813 45102 ft 345 kts 248°
2026-04-25 02:40 27.00831 -48.07519 45106 ft 348 kts 248°
2026-04-25 02:40 26.98423 -48.12211 45105 ft 347 kts 248°
2026-04-25 02:41 26.96016 -48.16902 45104 ft 347 kts 248°
2026-04-25 02:41 26.93600 -48.21601 45104 ft 347 kts 248°
2026-04-25 02:42 26.91186 -48.26293 45104 ft 346 kts 248°
2026-04-25 02:42 26.88789 -48.30951 45100 ft 349 kts 248°
2026-04-25 02:43 26.86352 -48.35673 45102 ft 349 kts 248°
2026-04-25 02:43 26.83917 -48.40392 45102 ft 349 kts 248°
2026-04-25 02:44 26.81503 -48.45064 45104 ft 349 kts 248°
2026-04-25 02:44 26.79056 -48.49794 45102 ft 349 kts 248°
2026-04-25 02:45 26.76632 -48.54477 45090 ft 349 kts 248°
2026-04-25 02:45 26.74185 -48.59198 45095 ft 351 kts 248°
2026-04-25 02:46 26.71742 -48.63903 45095 ft 350 kts 248°
2026-04-25 02:46 26.69291 -48.68625 45094 ft 351 kts 248°
2026-04-25 02:47 26.66851 -48.73315 45099 ft 351 kts 248°
2026-04-25 02:47 26.64396 -48.78032 45099 ft 351 kts 248°
2026-04-25 02:48 26.61943 -48.82738 45089 ft 351 kts 247°
2026-04-25 02:48 26.59479 -48.87462 45092 ft 351 kts 247°
2026-04-25 02:49 26.57017 -48.92176 45094 ft 351 kts 247°
2026-04-25 02:49 26.54553 -48.96890 45092 ft 351 kts 247°
2026-04-25 02:50 26.52101 -49.01576 45088 ft 351 kts 247°
2026-04-25 02:50 26.49633 -49.06287 45087 ft 351 kts 247°
2026-04-25 02:51 26.47162 -49.10998 45090 ft 351 kts 247°
2026-04-25 02:51 26.44690 -49.15707 45088 ft 351 kts 247°
2026-04-25 02:52 26.42217 -49.20411 45088 ft 351 kts 247°
2026-04-25 02:52 26.39755 -49.25092 45088 ft 351 kts 247°
2026-04-25 02:53 26.37275 -49.29801 45088 ft 351 kts 247°
2026-04-25 02:53 26.34812 -49.34471 45084 ft 349 kts 247°
2026-04-25 02:54 26.32346 -49.39146 45079 ft 350 kts 247°
2026-04-25 02:54 26.29869 -49.43833 45082 ft 350 kts 246°
2026-04-25 02:55 26.27393 -49.48516 45079 ft 350 kts 246°
2026-04-25 02:55 26.24914 -49.53198 45091 ft 350 kts 246°
2026-04-25 02:56 26.22447 -49.57853 45084 ft 351 kts 246°
2026-04-25 02:56 26.19965 -49.62531 45071 ft 349 kts 246°
2026-04-25 02:57 26.17486 -49.67202 45072 ft 350 kts 246°
2026-04-25 02:57 26.15008 -49.71861 45072 ft 350 kts 246°
2026-04-25 02:58 26.12541 -49.76498 45081 ft 350 kts 246°
2026-04-25 02:58 26.10058 -49.81159 45082 ft 350 kts 246°
2026-04-25 02:59 26.07573 -49.85820 45081 ft 350 kts 246°
2026-04-25 02:59 26.05114 -49.90425 45071 ft 348 kts 246°
2026-04-25 03:00 26.02637 -49.95062 45072 ft 348 kts 246°
2026-04-25 03:00 26.00578 -49.98911 45068 ft 348 kts 246°
2026-04-25 03:01 25.97583 -50.04231 45070 ft 350 kts 245°
2026-04-25 03:01 25.95401 -50.08065 45070 ft 349 kts 245°
2026-04-25 03:02 25.92810 -50.12608 45070 ft 349 kts 245°
2026-04-25 03:02 25.90210 -50.17160 45067 ft 348 kts 245°
2026-04-25 03:03 25.87635 -50.21668 45076 ft 347 kts 245°
2026-04-25 03:03 25.85037 -50.26209 45071 ft 347 kts 245°
2026-04-25 03:04 25.82443 -50.30739 45069 ft 347 kts 245°
2026-04-25 03:04 25.79845 -50.35271 45067 ft 347 kts 245°
2026-04-25 03:05 25.75963 -50.42034 45063 ft 346 kts 245°
2026-04-25 03:05 25.73377 -50.46534 45064 ft 346 kts 245°
2026-04-25 03:06 25.70803 -50.51010 45066 ft 346 kts 245°
2026-04-25 03:06 25.68211 -50.55513 45063 ft 346 kts 245°
2026-04-25 03:07 25.65620 -50.60009 45066 ft 346 kts 245°
2026-04-25 03:07 25.63025 -50.64508 45063 ft 346 kts 245°
2026-04-25 03:08 25.60432 -50.68997 45056 ft 345 kts 244°
2026-04-25 03:08 25.57855 -50.73458 45057 ft 346 kts 244°
2026-04-25 03:09 25.55253 -50.77954 45057 ft 345 kts 244°
2026-04-25 03:09 25.52657 -50.82438 45057 ft 346 kts 244°
2026-04-25 03:10 25.50074 -50.86895 45056 ft 346 kts 244°
2026-04-25 03:10 25.47478 -50.91369 45066 ft 345 kts 244°
2026-04-25 03:11 25.44878 -50.95847 45056 ft 346 kts 244°
2026-04-25 03:11 25.42273 -51.00328 45054 ft 346 kts 244°
2026-04-25 03:12 25.39670 -51.04802 45054 ft 346 kts 244°
2026-04-25 03:12 25.37085 -51.09241 45051 ft 346 kts 244°
2026-04-25 03:13 25.34478 -51.13712 45054 ft 346 kts 244°
2026-04-25 03:13 25.31870 -51.18182 45054 ft 346 kts 244°
2026-04-25 03:14 25.29264 -51.22643 45050 ft 344 kts 244°
2026-04-25 03:14 25.26676 -51.27072 45056 ft 345 kts 244°
2026-04-25 03:15 25.24068 -51.31528 45059 ft 344 kts 244°
2026-04-25 03:15 25.21459 -51.35983 45059 ft 345 kts 244°
2026-04-25 03:16 25.18856 -51.40423 45060 ft 345 kts 244°
2026-04-25 03:16 25.16246 -51.44872 45061 ft 345 kts 244°
2026-04-25 03:17 25.13651 -51.49289 45041 ft 344 kts 244°
2026-04-25 03:17 25.11051 -51.53712 45054 ft 343 kts 244°
2026-04-25 03:18 25.08456 -51.58122 45061 ft 343 kts 244°
2026-04-25 03:18 25.05853 -51.62542 45057 ft 343 kts 244°
2026-04-25 03:19 25.03244 -51.66968 45057 ft 343 kts 244°
2026-04-25 03:19 25.00641 -51.71380 45056 ft 343 kts 244°
2026-04-25 03:20 24.98050 -51.75767 45057 ft 343 kts 244°
2026-04-25 03:20 24.95438 -51.80185 45057 ft 343 kts 243°
2026-04-25 03:21 24.92844 -51.84568 45056 ft 342 kts 243°
2026-04-25 03:21 24.90230 -51.88983 45056 ft 343 kts 243°
2026-04-25 03:22 24.87621 -51.93383 45056 ft 343 kts 243°
2026-04-25 03:22 24.85030 -51.97751 45057 ft 343 kts 243°
2026-04-25 03:23 24.82411 -52.02161 45052 ft 343 kts 243°
2026-04-25 03:23 24.79812 -52.06534 45044 ft 342 kts 243°
2026-04-25 03:24 24.77204 -52.10917 45039 ft 342 kts 243°
2026-04-25 03:24 24.74591 -52.15305 45045 ft 342 kts 243°
2026-04-25 03:25 24.71976 -52.19692 45041 ft 342 kts 243°
2026-04-25 03:25 24.69393 -52.24020 45027 ft 323 kts 243°
2026-04-25 03:26 24.68206 -52.25990 45019 ft 302 kts 244°
2026-04-25 03:26 24.67090 -52.27857 45023 ft 282 kts 244°
2026-04-25 03:26 24.66053 -52.29599 45020 ft 264 kts 244°
2026-04-25 03:26 24.65076 -52.31236 45008 ft 247 kts 245°
2026-04-25 03:27 24.64166 -52.32757 45020 ft 230 kts 245°
2026-04-25 03:27 24.63315 -52.34181 45025 ft 215 kts 245°
2026-04-25 03:27 24.62523 -52.35505 45021 ft 200 kts 246°
2026-04-25 03:27 24.61795 -52.36722 45021 ft 185 kts 246°
2026-04-25 03:28 24.61114 -52.37860 45021 ft 171 kts 247°
2026-04-25 03:28 24.60490 -52.38902 45019 ft 156 kts 248°
2026-04-25 03:28 24.59923 -52.39847 45017 ft 140 kts 249°
2026-04-25 03:28 24.59419 -52.40686 45018 ft 122 kts 249°
2026-04-25 03:29 24.58967 -52.41443 44702 ft 120 kts 250°
2026-04-25 03:29 24.58486 -52.42222 44244 ft 123 kts 247°
2026-04-25 03:29 24.57952 -52.42928 43942 ft 122 kts 243°
2026-04-25 03:29 24.57301 -52.43596 43383 ft 135 kts 238°
2026-04-25 03:30 24.56502 -52.44203 43073 ft 141 kts 231°
2026-04-25 03:30 24.55588 -52.44639 42770 ft 149 kts 224°
2026-04-25 03:30 24.54518 -52.44941 42259 ft 169 kts 216°
2026-04-25 03:30 24.53317 -52.45041 42057 ft 178 kts 207°
2026-04-25 03:31 24.52031 -52.44899 41642 ft 197 kts 197°
2026-04-25 03:31 24.50645 -52.44464 41052 ft 223 kts 179°
2026-04-25 03:31 24.49008 -52.43412 38755 ft 327 kts 167°
2026-04-25 03:31 24.47138 -52.42023 38936 ft 311 kts 159°